Tracking 27172 objects as of 2-Apr-2023
HD Live streaming from Space Station
objects crossing your sky now

LATINSAT A

Track LATINSAT A now!
10-day predictions
LATINSAT A is classified as:


NORAD ID: 27612
Int'l Code: 2002-058H
Perigee: 601.0 km
Apogee: 668.0 km
Inclination: 64.6 °
Period: 97.3 minutes
Semi major axis: 7005 km
RCS: 0.0297 m2 (small)
Launch date: December 20, 2002
Source: Argentina (ARGN)
Launch site: TYURATAM MISSILE AND SPACE COMPLEX (TTMTR)

Nanosatellite; planned constellation of 48 satellites, little LEO; asset tracking and monitoring services.
Your satellite tracking list
Your tracking list is empty




NASA's NSSDC Master Catalog

Two Line Element Set (TLE):
1 27612U 02058H   23091.95645130  .00001830  00000-0  25200-3 0  9995
2 27612  64.5584 348.1097 0047873 229.2218 130.4728 14.80619991 93789
Source of the keplerian elements: AFSPC